Regional Weather Roundup
Issued by NWS

Home | Current Version | Previous Version | Graphics & Text | Print | Product List | Glossary On
Versions: 1 2 3 4 5 6 7 8 9 10 11 12 13 14 15 16 17 18 19 20 21 22 23 24 25 26 27 28 29 30 31 32 33 34 35 36 37 38 39 40 41 42 43 44 45 46 47 48 49 50
000
ASUS43 KMPX 280001
RWRMN
WEATHER ROUNDUP FOR MINNESOTA
NATIONAL WEATHER SERVICE TWIN CITIES/CHANHASSEN MN
600 PM CST SAT DEC 27 2014


NOTE: "FAIR" INDICATES FEW OR NO CLOUDS BELOW 12,000 FEET WITH NO
SIGNIFICANT WEATHER AND/OR OBSTRUCTIONS TO VISIBILITY. N/A MEANS
CURRENT SKY AND/OR WEATHER CONDITIONS ARE NOT AVAILABLE.

MNZ060>063-068>070-280100-
   Twin Cities Metro

CITY           SKY/WX    TMP DP  RH WIND       PRES   REMARKS
TWIN CITIES    CLEAR     14   7  73 SW8       30.12R WCI   3
6HR MIN TEMP:  14; 6HR MAX TEMP:  25;

ST PAUL        CLEAR     16   9  74 SW5       30.13R WCI   9
CRYSTAL        CLEAR     16   7  67 SW12      30.10R WCI   3
BLAINE         CLEAR     19  12  73 SW10      30.08S WCI   8
LAKEVILLE      CLEAR     10   5  79 CALM      30.12S
EDEN PRAIRIE   CLEAR     12   5  73 SW9       30.11S WCI   0
6HR MIN TEMP:  12; 6HR MAX TEMP:  26;

SOUTH ST PAUL  CLEAR     16   8  70 SW6       30.12R WCI   8
LAKE ELMO      FAIR      19  12  73 SW10      30.10R WCI   8
$$
MNZ001>005-007-008-013>017-022>024-027-028-280100-
   Northwest Minnesota

CITY           SKY/WX    TMP DP  RH WIND       PRES   REMARKS
BEMIDJI        CLOUDY    15  11  83 W6        29.99S WCI   7
HALLOCK        FLURRIES  12   9  85 N12       30.05R WCI  -2
ROSEAU         LGT SNOW  16   9  73 W10       30.01R WCI   3
WARROAD        LGT SNOW  14  10  85 W7        29.99S WCI   4
THIEF RVR FALL CLOUDY    16  10  79 W5        30.01S WCI   9
CROOKSTON      LGT SNOW  18  16  93 CALM      30.04S
FOSSTON        CLOUDY    14  12  92 S8        30.00F FOG     WCI   3
DETROIT LAKES  CLOUDY    21  18  86 SW5       30.02S WCI  15
MOORHEAD       MOCLDY    25  23  93 SW3       30.04S
PARK RAPIDS    CLOUDY    19  12  74 W9        30.00S WCI   8
MAHNOMEN       CLOUDY    18  14  85 SW3       30.01S
$$
MNZ006-009>011-018-025>026-280100-
   North Central Minnesota

CITY           SKY/WX    TMP DP  RH WIND       PRES   REMARKS
BAUDETTE       CLOUDY    13   9  84 CALM      29.97S
FLAG ISLAND    CLOUDY    10   7  85 NW13      29.98R WCI  -5
INTL FALLS     CLOUDY    12   5  73 SW8       29.96S WCI   0
6HR MIN TEMP:  12; 6HR MAX TEMP:  16;

WASKISH        CLOUDY    14  10  85 CALM      29.98F
BIG FORK       CLOUDY    16   7  67 W5        29.98S WCI   9
LONGVILLE      CLOUDY    19  10  68 W9        30.00S WCI   9
GRAND RAPIDS   CLOUDY    19   7  58 NW8       29.97S WCI   9
CRANE LAKE     PTCLDY    16   5  62 SW5       29.97F WCI   9
ORR            CLOUDY    16   3  57 W6        29.94S WCI   7
COOK           CLOUDY    18   7  62 W8        29.96S WCI   7
WALKER         CLOUDY    17  10  74 W10       30.00R WCI   5
$$
MNZ012-019>021-037-280100-
   Northeast Minnesota

CITY           SKY/WX    TMP DP  RH WIND       PRES   REMARKS
DULUTH         MOCLDY    20   7  57 W8        29.96R WCI  10
6HR MIN TEMP:  18; 6HR MAX TEMP:  23;

ELY            CLOUDY    16   9  73 CALM      29.93S
HIBBING        CLOUDY    20   5  52 W5        29.96S WCI  13
EVELETH        MOCLDY    21   9  58 W7        29.96S WCI  13
DULUTH HARBOR  CLOUDY    27   9  46 CALM      30.02S
TWO HARBORS    CLOUDY    23  10  58 W5        29.95F WCI  17
SILVER BAY     CLOUDY    21   9  58 CALM      29.94F
GRAND MARAIS     N/A     18  10  71 W9        29.96F WCI   7
G MARAIS ARPRT PTCLDY     9   3  78 W9        29.87F WCI  -5
$$
MNZ029>031-032-039>041-046>048-054>057-064-280100-
   West Central Minnesota

CITY           SKY/WX    TMP DP  RH WIND       PRES   REMARKS
FERGUS FALLS   CLOUDY    19  16  86 SW5       30.07S WCI  13
WHEATON        CLEAR     18  14  86 S5        30.08F WCI  11
MORRIS         CLEAR     19  16  86 SW8       30.07R WCI   9
ALEXANDRIA     CLEAR     16  11  80 SW9       30.04S WCI   4
ELBOW LAKE     FAIR      19  17  91 W8        30.04F WCI   9
WADENA         CLOUDY    18  12  79 W3        30.01F
GLENWOOD       CLEAR     10   9  92 SW8       30.06S WCI  -1
APPLETON       CLEAR     18  12  79 W6        30.10R WCI   9
BENSON         CLEAR     18  12  79 W7        30.08S WCI   8
ORTONVILLE     CLEAR     18  12  79 CALM      30.09R
MADISON        CLEAR     19  16  86 W7        30.11R WCI  10
WILLMAR        CLOUDY    18  12  79 CALM      30.10S
$$
MNZ033>034-036-042>043-049>051-058-059-280100-
   Central Minnesota

CITY           SKY/WX    TMP DP  RH WIND       PRES   REMARKS
ST CLOUD       CLOUDY    22  11  62 SW8       30.07R WCI  12
6HR MIN TEMP:  19; 6HR MAX TEMP:  26;

SAUK CENTRE    FAIR      13   9  83 SW5       30.06S WCI   5
PAYNESVILLE    CLOUDY    14  10  83 S7        30.08S WCI   4
AITKIN         CLOUDY    25   9  50 W6        29.99S WCI  18
PINE RIVER     CLOUDY    19  12  73 W5        30.05R WCI  13
BRAINERD       CLOUDY    22   7  52 W6        30.02R WCI  14
STAPLES        MOCLDY    18  12  79 SW3       30.02S
LITTLE FALLS   PTCLDY    19  10  68 SW3       30.06R
LITCHFIELD     PTCLDY    12  10  92 CALM      30.10R
BUFFALO        CLEAR     12   7  79 SW3       30.12R
MAPLE LAKE     CLEAR     15  10  82 SW7       30.10R WCI   5
$$
MNZ037-044-045-052-053-280100-
   East Central Minnesota

CITY           SKY/WX    TMP DP  RH WIND       PRES   REMARKS
PRINCETON      PTCLDY    19   7  58 CALM      30.07R
MORA           CLEAR     19   7  58 SW6       30.06R WCI  11
CAMBRIDGE      CLEAR     21   9  58 SW6       30.06R WCI  14
RUSH CITY      CLEAR     19   8  62 CALM      30.06R
MOOSE LAKE     MOCLDY    21   7  53 SW3       29.99S
HINCKLEY       FAIR      23  14  68 CALM      30.03R
CLOQUET        CLOUDY    21   5  49 W6        29.98R WCI  14
MCGREGOR       CLOUDY    23   9  54 W3        30.00S
$$
MNZ071>073-080-081-089-090-097-098-280100-
   Southwest Minnesota

CITY           SKY/WX    TMP DP  RH WIND       PRES   REMARKS
MONTEVIDEO     PTCLDY    18  14  86 CALM      30.12R
GRANITE FALLS  PTCLDY    16  12  84 SW7       30.13R WCI   6
CANBY          FAIR      17  12  80 SW10      30.12R WCI   5
MARSHALL       CLEAR     16   7  67 SW15      30.11R WCI   1
REDWOOD FALLS  CLEAR     12   7  80 SW7       30.12R WCI   1
OLIVIA         CLEAR     14  10  85 SW6       30.11R WCI   5
PIPESTONE      CLEAR      5   3  92 SW8       30.11R WCI  -8
WINDOM         CLEAR     12   7  79 SW9       30.12F WCI   0
WORTHINGTON    CLEAR     10 -33  12 SW13      30.14S WCI  -5
JACKSON        PTCLDY    16   9  73 SW10      30.14S WCI   3
TRACY          CLEAR     13   9  82 SW15      30.12R WCI  -2
SLAYTON        CLEAR      9   6  85 S9        30.12S WCI  -4
$$
MNZ065>067-074>077-082>085-091>093-280100-
   South Central Minnesota

CITY           SKY/WX    TMP DP  RH WIND       PRES   REMARKS
MANKATO        FAIR      12   3  67 SW6       30.13F WCI   3
NEW ULM        CLEAR     12   7  79 SW8       30.13S WCI   1
ST JAMES       CLEAR     16   9  73 S3        30.15F
FAIRMONT       CLEAR     16   7  67 SW8       30.14S WCI   5
GLENCOE        CLEAR     10   7  85 SW6       30.12R WCI   1
FARIBAULT      CLEAR     12   7  79 SW5       30.13F WCI   4
OWATONNA       CLEAR      9   3  78 SW6       30.13S WCI  -1
ALBERT LEA     CLEAR     12   7  79 W3        30.14R
$$
MNZ078>079-086>088-094>096-280100-
   Southeast Minnesota

CITY           SKY/WX    TMP DP  RH WIND       PRES   REMARKS
ROCHESTER      CLEAR      9   6  88 W9        30.11S WCI  -4
6HR MIN TEMP:   9; 6HR MAX TEMP:  22;

RED WING       CLEAR     18  10  73 W7        30.12S WCI   8
STANTON        CLEAR     12   6  77 SW7       30.12S WCI   1
DODGE CENTER   PTCLDY    10   9  92 W9        30.11S WCI  -2
WINONA         CLEAR     23  18  80 W5        30.14S WCI  17
AUSTIN         CLEAR     12   7  79 SW6       30.14R WCI   3
PRESTON        CLEAR     13  10  90 W7        30.12S WCI   2
$$
ABBREVIATIONS USED IN REMARKS
   TC - TEMPERATURES IN CELSIUS
  WCI - WIND CHILL INDEX
   HX - HEAT INDEX
  VSB - VISIBILITY
$$


USA.gov is the U.S. government's official web portal to all federal, state and local government web resources and services.